EW9204 Weather Reports


Display with metric or nautical units.
time (UTC)temp
F
wind
direction
speed
MPH
gust
MPH
rain 1hr
in
rain 24hr
in
rain mn
in
humidity
%
barometer
mb
20260905053040 65 80 0.0 2.0 0.00 0.07 0.00 92 1011.4
20260905052521 65 76 0.0 2.0 0.00 0.07 0.00 93 1011.5
20260905052016 65 34 1.0 2.0 0.00 0.07 0.00 92 1011.5
20260905051551 65 93 0.0 2.0 0.00 0.07 0.00 92 1011.5
20260905051018 65 325 1.0 2.0 0.00 0.07 0.00 92 1011.5
20260905050518 66 76 1.0 2.0 0.00 0.07 0.00 92 1011.5
20260905050040 66 34 0.0 2.0 0.00 0.07 0.00 92 1011.7
20260905045520 66 0 1.0 2.0 0.00 0.11 0.00 91 1011.8
20260905045023 66 34 0.0 2.0 0.00 0.11 0.00 91 1011.7
20260905044544 66 51 1.0 2.0 0.00 0.11 0.00 90 1011.8
20260905044018 66 93 0.0 2.0 0.00 0.11 0.00 90 1011.7
20260905043520 66 0 0.0 2.0 0.00 0.11 0.00 90 1011.8
20260905043043 66 319 0.0 2.0 0.00 0.11 0.00 89 1011.9
20260905042521 66 34 0.0 2.0 0.00 0.11 0.00 89 1011.8
20260905042019 66 0 0.0 2.0 0.00 0.11 0.00 89 1011.8
20260905041538 67 22 0.0 2.0 0.00 0.11 0.00 89 1011.8
20260905041016 67 298 0.0 2.0 0.00 0.11 0.00 89 1011.6
20260905040517 67 0 0.0 2.0 0.00 0.11 0.00 89 1011.6
20260905040048 67 26 1.0 3.0 0.00 0.11 0.00 89 1011.7
20260905035518 67 30 1.0 3.0 0.00 0.11 0.11 88 1011.7
20260905035019 67 41 1.0 3.0 0.00 0.11 0.11 88 1011.8
20260905034542 67 71 1.0 3.0 0.00 0.11 0.11 87 1011.8
20260905034023 68 61 1.0 3.0 0.00 0.11 0.11 87 1011.9
20260905033523 68 57 1.0 3.0 0.00 0.11 0.11 87 1011.9
20260905033039 68 72 1.0 3.0 0.00 0.11 0.11 86 1011.8
20260905032520 68 41 1.0 4.0 0.00 0.11 0.11 85 1011.8
20260905032020 67 137 1.0 4.0 0.00 0.11 0.11 86 1011.9
20260905031544 67 93 1.0 4.0 0.00 0.11 0.11 87 1011.9
20260905031020 67 76 1.0 3.0 0.00 0.11 0.11 88 1011.9
20260905030518 66 46 1.0 3.0 0.00 0.11 0.11 90 1012.0
20260905030047 66 26 1.0 4.0 0.00 0.11 0.11 90 1011.8
20260905025520 66 61 1.0 4.0 0.00 0.11 0.11 90 1011.8
20260905025024 66 17 1.0 4.0 0.00 0.11 0.11 90 1011.7
20260905024540 66 51 1.0 4.0 0.00 0.11 0.11 91 1011.7
20260905024015 66 34 1.0 4.0 0.00 0.11 0.11 90 1011.7
20260905023527 66 30 0.0 2.0 0.00 0.11 0.11 91 1011.5
20260905023039 66 0 0.0 2.0 0.00 0.11 0.11 91 1011.6
20260905022517 66 93 0.0 2.0 0.00 0.11 0.11 91 1011.6
20260905022023 66 22 0.0 2.0 0.00 0.11 0.11 92 1011.6
20260905021545 66 34 0.0 2.0 0.00 0.11 0.11 91 1011.6
20260905021019 66 68 0.0 3.0 0.00 0.11 0.11 91 1011.7
20260905020522 66 26 0.0 3.0 0.00 0.11 0.11 91 1011.8
20260905020048 66 0 0.0 3.0 0.00 0.11 0.11 91 1011.8
20260905015516 67 9 0.0 2.0 0.00 0.11 0.11 90 1011.7
20260905015019 67 0 0.0 2.0 0.00 0.11 0.11 90 1011.7
20260905014540 67 51 1.0 2.0 0.00 0.11 0.11 90 1011.8
20260905014024 67 51 1.0 2.0 0.00 0.11 0.11 90 1011.8
20260905013520 67 76 0.0 2.0 0.00 0.11 0.11 89 1011.8
20260905013043 67 51 1.0 2.0 0.00 0.11 0.11 89 1011.8
20260905012519 67 72 0.0 2.0 0.00 0.11 0.11 89 1011.8
20260905012016 67 71 1.0 2.0 0.00 0.11 0.11 89 1011.8
20260905011600 67 68 0.0 2.0 0.00 0.11 0.11 89 1011.9
20260905011018 68 9 0.0 2.0 0.00 0.11 0.11 89 1011.9
20260905010519 68 111 0.0 2.0 0.00 0.11 0.11 89 1011.9
20260905010044 68 0 0.0 2.0 0.00 0.11 0.11 89 1012.0
20260905005521 68 59 0.0 2.0 0.00 0.11 0.11 89 1012.0
20260905005021 68 0 0.0 2.0 0.00 0.11 0.11 89 1011.9
20260905004540 69 9 0.0 2.0 0.00 0.11 0.11 88 1011.8
20260905004017 69 51 0.0 2.0 0.00 0.11 0.11 88 1011.7
20260905003520 69 0 0.0 2.0 0.00 0.11 0.11 87 1011.7
20260905003049 69 68 0.0 1.0 0.00 0.11 0.11 86 1011.7
20260905002522 69 0 0.0 1.0 0.00 0.11 0.11 85 1011.8
20260905002022 70 0 0.0 2.0 0.00 0.11 0.11 85 1011.8
20260905001544 70 0 0.0 2.0 0.00 0.11 0.11 84 1011.8
20260905001018 70 51 0.0 2.0 0.00 0.11 0.11 83 1011.8
20260905000520 70 51 1.0 2.0 0.00 0.11 0.11 83 1011.8
20260905000039 71 51 0.0 2.0 0.00 0.11 0.11 83 1011.7
20260904235517 71 0 0.0 2.0 0.00 0.11 0.11 81 1011.8
20260904235020 72 0 0.0 2.0 0.00 0.11 0.11 80 1011.8
20260904234538 72 0 0.0 2.0 0.00 0.11 0.11 79 1011.9
20260904234019 73 0 0.0 2.0 0.00 0.11 0.11 79 1011.8
20260904233523 73 93 0.0 2.0 0.00 0.11 0.11 78 1011.8
20260904233051 74 93 0.0 2.0 0.00 0.11 0.11 77 1011.8
20260904232521 74 111 0.0 2.0 0.00 0.11 0.11 76 1011.7
20260904232019 75 93 0.0 2.0 0.00 0.11 0.11 75 1011.6
20260904231542 75 9 0.0 2.0 0.00 0.11 0.11 74 1011.5
20260904231016 75 221 0.0 1.0 0.00 0.11 0.11 73 1011.6
20260904230518 76 0 0.0 1.0 0.00 0.11 0.11 72 1011.6
20260904230042 76 0 0.0 2.0 0.00 0.11 0.11 70 1011.5
20260904225621 76 0 0.0 3.0 0.00 0.11 0.11 70 1011.6
20260904225020 77 0 0.0 3.0 0.00 0.11 0.11 69 1011.6
20260904224539 77 0 1.0 3.0 0.00 0.11 0.11 69 1011.7
20260904224018 77 19 0.0 2.0 0.00 0.11 0.11 69 1011.8
20260904223522 77 319 0.0 5.0 0.00 0.11 0.11 68 1011.9
20260904223043 78 0 0.0 5.0 0.00 0.11 0.11 68 1011.9
20260904222521 78 291 0.0 5.0 0.00 0.11 0.11 67 1011.9
20260904222017 78 178 1.0 4.0 0.00 0.11 0.11 67 1011.6
20260904221541 79 0 0.0 4.0 0.00 0.11 0.11 66 1011.6
20260904221019 79 0 1.0 3.0 0.00 0.11 0.11 64 1011.5
20260904220521 79 137 1.0 6.0 0.00 0.11 0.11 65 1011.6
20260904220042 79 282 2.0 7.0 0.00 0.11 0.11 63 1011.6
20260904215523 80 316 2.0 7.0 0.00 0.11 0.11 62 1011.5
20260904215020 80 273 1.0 6.0 0.00 0.11 0.11 60 1011.6
20260904214542 80 9 1.0 6.0 0.00 0.11 0.11 61 1011.7
20260904214019 81 162 1.0 5.0 0.00 0.11 0.11 60 1011.7
20260904213519 81 303 2.0 6.0 0.00 0.11 0.11 58 1011.6
20260904213040 81 137 2.0 6.0 0.00 0.11 0.11 59 1011.5
20260904212524 81 137 1.0 7.0 0.00 0.11 0.11 61 1011.5
20260904212022 81 334 2.0 7.0 0.00 0.11 0.11 59 1011.5
20260904211539 81 57 1.0 7.0 0.00 0.11 0.11 57 1011.5
20260904211020 82 51 2.0 6.0 0.00 0.11 0.11 56 1011.6
20260904210520 82 221 1.0 6.0 0.00 0.11 0.11 60 1011.7
20260904210040 81 284 1.0 8.0 0.00 0.11 0.11 58 1011.7
20260904205522 82 339 1.0 8.0 0.00 0.11 0.11 55 1011.8
20260904205022 82 265 2.0 7.0 0.00 0.11 0.11 57 1011.9
20260904204538 81 238 1.0 7.0 0.00 0.11 0.11 58 1011.9
20260904204019 81 0 1.0 7.0 0.00 0.11 0.11 59 1011.9
20260904203521 81 301 1.0 11.0 0.00 0.11 0.11 59 1011.9
20260904203042 81 9 2.0 11.0 0.00 0.11 0.11 58 1012.1
20260904202521 81 106 3.0 9.0 0.00 0.11 0.11 56 1012.2
20260904202020 81 137 1.0 8.0 0.00 0.11 0.11 59 1012.1
20260904201542 81 16 3.0 12.0 0.00 0.11 0.11 57 1012.0
20260904201020 81 257 2.0 12.0 0.00 0.11 0.11 57 1012.1
20260904200517 82 319 3.0 11.0 0.00 0.11 0.11 57 1012.1
20260904200044 81 0 2.0 9.0 0.00 0.11 0.11 61 1012.1
20260904195519 81 279 3.0 9.0 0.00 0.11 0.11 60 1012.0
20260904195017 81 303 2.0 7.0 0.00 0.11 0.11 61 1011.9
20260904194540 80 26 2.0 8.0 0.00 0.11 0.11 61 1012.0
20260904194021 80 346 2.0 8.0 0.00 0.11 0.11 62 1012.1
20260904193521 80 11 2.0 9.0 0.00 0.11 0.11 62 1012.2
20260904193042 80 282 3.0 9.0 0.00 0.11 0.11 62 1012.3
20260904192527 79 306 3.0 9.0 0.00 0.11 0.11 63 1012.3
20260904192023 79 298 3.0 9.0 0.00 0.11 0.11 62 1012.4
20260904191541 79 265 2.0 7.0 0.00 0.11 0.11 63 1012.4
20260904191023 79 0 1.0 9.0 0.00 0.11 0.11 66 1012.6
20260904190519 79 26 2.0 9.0 0.00 0.11 0.11 65 1012.5
20260904190037 79 158 1.0 10.0 0.00 0.11 0.11 64 1012.7
20260904185516 80 24 2.0 10.0 0.00 0.11 0.11 65 1012.7
20260904185021 80 288 2.0 7.0 0.00 0.11 0.11 65 1012.7
20260904184543 80 245 1.0 4.0 0.00 0.11 0.11 68 1012.7
20260904184016 79 0 1.0 10.0 0.00 0.11 0.11 68 1012.7
20260904183522 79 328 1.0 10.0 0.00 0.11 0.11 64 1012.8
20260904183038 80 44 4.0 10.0 0.00 0.11 0.11 64 1012.8
20260904182525 80 254 4.0 10.0 0.00 0.11 0.11 64 1012.7
20260904182023 81 280 4.0 11.0 0.00 0.11 0.11 62 1012.9
20260904181541 80 9 3.0 11.0 0.00 0.11 0.11 67 1012.9
20260904181025 80 178 2.0 8.0 0.00 0.11 0.11 68 1012.8
20260904180526 79 291 2.0 10.0 0.00 0.11 0.11 66 1012.7
20260904180053 80 311 4.0 10.0 0.00 0.11 0.11 63 1012.7
20260904175516 80 265 3.0 10.0 0.00 0.11 0.11 65 1012.7
20260904175019 80 312 2.0 9.0 0.00 0.11 0.11 63 1012.7
20260904174544 81 332 3.0 7.0 0.00 0.11 0.11 63 1012.5
20260904174020 81 17 2.0 8.0 0.00 0.11 0.11 63 1012.6
20260904173518 80 229 1.0 9.0 0.00 0.11 0.11 66 1012.7
20260904173058 80 280 3.0 11.0 0.00 0.11 0.11 65 1012.7
20260904172520 80 301 2.0 11.0 0.00 0.11 0.11 68 1012.7
20260904172018 80 315 5.0 11.0 0.00 0.11 0.11 64 1012.8
20260904171548 80 209 4.0 11.0 0.00 0.11 0.11 67 1012.8
20260904171017 80 282 2.0 11.0 0.00 0.11 0.11 65 1012.8
20260904170516 80 36 3.0 11.0 0.00 0.11 0.11 66 1012.8
20260904170043 80 13 4.0 11.0 0.00 0.11 0.11 66 1012.9
20260904165521 79 300 3.0 11.0 0.00 0.11 0.11 66 1013.0
20260904165018 79 28 3.0 9.0 0.00 0.11 0.11 70 1013.2
20260904164539 79 325 3.0 9.0 0.00 0.11 0.11 70 1013.1
20260904164018 78 61 2.0 9.0 0.00 0.11 0.11 73 1013.0
20260904163529 78 309 3.0 9.0 0.00 0.11 0.11 72 1013.0
20260904163043 78 38 2.0 15.0 0.00 0.11 0.11 71 1013.2
20260904162519 78 309 4.0 15.0 0.00 0.11 0.11 71 1013.3
20260904162017 79 61 3.0 15.0 0.00 0.11 0.11 71 1013.3
20260904161539 80 13 4.0 15.0 0.00 0.11 0.11 69 1013.4
20260904161017 80 59 6.0 15.0 0.00 0.11 0.11 68 1013.5
20260904160526 80 325 3.0 13.0 0.00 0.11 0.11 70 1013.5
20260904160041 79 329 5.0 14.0 0.00 0.11 0.11 66 1013.4
20260904155520 79 24 4.0 14.0 0.00 0.11 0.11 66 1013.4
20260904155025 79 55 4.0 13.0 0.00 0.11 0.11 69 1013.5
20260904154537 79 36 3.0 12.0 0.00 0.11 0.11 69 1013.6
20260904154019 79 335 6.0 12.0 0.00 0.11 0.11 69 1013.7
20260904153519 80 49 4.0 10.0 0.00 0.11 0.11 70 1013.8
20260904153045 80 313 3.0 9.0 0.00 0.11 0.11 71 1013.9
20260904152518 79 111 3.0 10.0 0.00 0.11 0.11 74 1014.1
20260904152020 79 22 4.0 10.0 0.00 0.11 0.11 72 1014.1
20260904151545 79 207 2.0 11.0 0.00 0.11 0.11 73 1014.1
20260904151019 79 232 2.0 11.0 0.00 0.11 0.11 74 1014.1
20260904150522 79 313 3.0 10.0 0.00 0.11 0.11 73 1014.1
20260904150043 79 75 4.0 10.0 0.00 0.11 0.11 78 1014.1
20260904145520 79 309 2.0 8.0 0.00 0.11 0.11 76 1014.2
20260904145018 79 76 1.0 8.0 0.00 0.11 0.11 77 1014.3
20260904144543 78 325 3.0 9.0 0.00 0.11 0.11 79 1014.3
20260904144017 78 0 2.0 9.0 0.00 0.11 0.11 77 1014.4
20260904143518 78 270 4.0 9.0 0.00 0.11 0.11 80 1014.3
20260904143042 78 19 2.0 8.0 0.00 0.11 0.11 79 1014.3
20260904142517 78 314 2.0 8.0 0.00 0.11 0.11 80 1014.4
20260904142018 77 282 2.0 5.0 0.00 0.11 0.11 83 1014.5
20260904141540 77 325 2.0 6.0 0.00 0.11 0.11 84 1014.4
20260904141016 76 24 3.0 11.0 0.00 0.11 0.11 84 1014.3
20260904140519 76 46 3.0 11.0 0.00 0.11 0.11 83 1014.4
20260904140040 76 36 3.0 11.0 0.00 0.11 0.11 85 1014.3
20260904135521 76 300 3.0 15.0 0.00 0.11 0.11 86 1014.4
20260904135021 76 337 2.0 15.0 0.00 0.11 0.11 86 1014.3
20260904134545 76 248 4.0 15.0 0.00 0.11 0.11 86 1014.3
20260904134018 76 280 3.0 9.0 0.00 0.11 0.11 87 1014.2
20260904133517 76 298 1.0 7.0 0.00 0.11 0.11 88 1014.2
20260904133040 75 201 3.0 10.0 0.00 0.11 0.11 88 1014.2
20260904132520 75 325 2.0 10.0 0.00 0.11 0.11 89 1014.0
20260904132020 75 325 2.0 6.0 0.00 0.11 0.11 89 1014.0
20260904131539 74 68 2.0 6.0 0.00 0.11 0.11 90 1013.8
20260904131018 74 33 2.0 7.0 0.00 0.11 0.11 90 1014.0
20260904130521 73 265 2.0 7.0 0.00 0.11 0.11 91 1014.0
20260904130043 73 31 3.0 9.0 0.00 0.11 0.11 91 1014.0
20260904125519 73 347 2.0 9.0 0.00 0.11 0.11 91 1014.1
20260904125019 73 304 2.0 7.0 0.00 0.11 0.11 91 1013.9
20260904124550 72 346 2.0 7.0 0.00 0.11 0.11 92 1013.9
20260904124017 72 30 1.0 8.0 0.00 0.11 0.11 92 1013.7
20260904123522 72 319 3.0 8.0 0.00 0.11 0.11 92 1013.7
20260904123044 72 305 2.0 6.0 0.00 0.11 0.11 93 1013.7
20260904122519 71 221 2.0 6.0 0.00 0.11 0.11 93 1013.7
20260904122020 71 26 2.0 6.0 0.00 0.11 0.11 94 1013.6
20260904121544 71 102 2.0 7.0 0.00 0.11 0.11 94 1013.5
20260904121019 71 51 2.0 7.0 0.00 0.11 0.11 95 1013.3
20260904120521 70 9 2.0 7.0 0.00 0.11 0.11 95 1013.3
20260904120047 70 36 1.0 8.0 0.00 0.11 0.11 95 1013.0
20260904115519 70 51 2.0 8.0 0.00 0.11 0.11 96 1013.1
20260904115025 70 44 1.0 7.0 0.00 0.11 0.11 96 1013.1
20260904114543 69 298 2.0 7.0 0.00 0.11 0.11 96 1013.1
20260904114021 69 51 1.0 6.0 0.00 0.11 0.11 96 1012.9
20260904113521 69 26 1.0 4.0 0.00 0.11 0.11 96 1012.6
20260904113049 69 51 1.0 5.0 0.00 0.11 0.11 96 1012.5
20260904112522 68 51 1.0 5.0 0.00 0.11 0.11 96 1012.5
20260904112021 68 325 2.0 4.0 0.00 0.11 0.11 96 1012.3
20260904111541 68 234 1.0 6.0 0.00 0.11 0.11 96 1012.0
20260904111017 68 0 1.0 7.0 0.00 0.11 0.11 96 1012.0
20260904110517 68 309 2.0 7.0 0.00 0.11 0.11 96 1012.0
20260904110042 68 28 1.0 5.0 0.00 0.11 0.11 96 1012.0
20260904105517 68 15 1.0 5.0 0.00 0.11 0.11 96 1012.1
20260904105018 68 34 1.0 3.0 0.00 0.11 0.11 96 1012.0
20260904104539 68 0 0.0 3.0 0.00 0.11 0.11 96 1012.0
20260904104019 68 0 0.0 3.0 0.00 0.11 0.11 96 1012.0
20260904103519 68 0 0.0 3.0 0.00 0.11 0.11 95 1011.9
20260904103043 68 0 0.0 3.0 0.00 0.11 0.11 95 1011.8
20260904102517 68 309 0.0 2.0 0.00 0.11 0.11 95 1011.8
20260904102018 69 0 0.0 4.0 0.00 0.11 0.11 96 1011.8
20260904101540 69 93 1.0 4.0 0.00 0.11 0.11 96 1011.8
20260904101019 69 51 0.0 3.0 0.00 0.11 0.11 96 1011.7
20260904100523 69 325 1.0 3.0 0.00 0.11 0.11 96 1011.7
20260904100037 69 0 1.0 4.0 0.00 0.11 0.11 95 1011.6
20260904095519 69 0 1.0 4.0 0.00 0.11 0.11 95 1011.6
20260904095018 69 22 0.0 2.0 0.00 0.11 0.11 95 1011.6
20260904094547 69 0 0.0 2.0 0.00 0.11 0.11 95 1011.5
20260904094017 69 325 1.0 2.0 0.00 0.11 0.11 95 1011.4
20260904093516 69 0 0.0 2.0 0.00 0.11 0.11 95 1011.4
20260904093040 70 9 1.0 2.0 0.00 0.11 0.11 95 1011.3
20260904092517 70 0 0.0 2.0 0.00 0.11 0.11 95 1011.3
20260904092019 70 9 1.0 2.0 0.00 0.11 0.11 95 1011.2
20260904091539 70 0 0.0 2.0 0.00 0.11 0.11 95 1011.2
20260904091020 70 330 1.0 2.0 0.00 0.11 0.11 95 1011.3
20260904090518 70 0 0.0 2.0 0.00 0.11 0.11 95 1011.3
20260904090037 70 0 0.0 2.0 0.00 0.11 0.11 95 1011.3
20260904085517 70 338 0.0 2.0 0.00 0.11 0.11 95 1011.3
20260904085021 70 0 0.0 2.0 0.00 0.11 0.11 95 1011.3
20260904084539 70 9 0.0 2.0 0.01 0.11 0.11 95 1011.2
20260904084017 70 0 0.0 2.0 0.01 0.11 0.11 95 1011.2
20260904083517 70 165 1.0 2.0 0.01 0.11 0.11 95 1011.2
20260904083042 70 0 0.0 2.0 0.01 0.11 0.11 95 1011.2
20260904082517 70 309 0.0 2.0 0.01 0.11 0.11 95 1011.3
20260904082017 71 205 0.0 2.0 0.01 0.11 0.11 95 1011.2
20260904081541 71 0 0.0 2.0 0.02 0.11 0.11 95 1011.1
20260904081018 71 0 0.0 4.0 0.02 0.11 0.11 95 1011.2
20260904080521 71 126 1.0 5.0 0.02 0.11 0.11 95 1011.1
20260904080040 71 342 1.0 9.0 0.02 0.11 0.11 95 1011.2
20260904075518 71 338 2.0 11.0 0.02 0.13 0.11 95 1011.2
20260904075017 72 323 2.0 11.0 0.02 0.13 0.11 96 1011.3
20260904074601 72 76 0.0 4.0 0.01 0.12 0.10 96 1011.5
20260904074020 72 111 0.0 3.0 0.01 0.12 0.10 96 1011.6
20260904073521 72 76 1.0 4.0 0.01 0.12 0.10 96 1011.6
20260904073059 72 24 2.0 4.0 0.01 0.12 0.10 96 1011.5
20260904072520 72 51 1.0 3.0 0.01 0.12 0.10 96 1011.3
20260904072019 72 34 1.0 3.0 0.00 0.11 0.09 96 1011.5
20260904071544 72 64 1.0 3.0 0.00 0.11 0.09 96 1011.4
20260904071020 72 67 1.0 2.0 0.00 0.11 0.09 96 1011.3
20260904070519 72 325 0.0 2.0 0.00 0.11 0.09 96 1011.1
20260904070046 72 0 0.0 2.0 0.00 0.11 0.09 96 1011.1
20260904065519 72 9 0.0 2.0 0.00 0.12 0.09 96 1011.2
20260904065024 72 93 0.0 2.0 0.00 0.12 0.09 95 1011.2
20260904064537 72 0 0.0 1.0 0.00 0.12 0.09 96 1011.4
20260904064019 72 0 0.0 2.0 0.00 0.12 0.09 96 1011.5
20260904063520 73 0 0.0 2.0 0.00 0.12 0.09 96 1011.7
20260904063043 73 0 1.0 2.0 0.00 0.12 0.09 96 1011.8
20260904062518 73 129 0.0 2.0 0.00 0.12 0.09 96 1011.9
20260904062020 73 0 0.0 2.0 0.00 0.12 0.09 96 1012.1
20260904061542 73 0 0.0 3.0 0.00 0.12 0.09 96 1012.0
20260904061018 73 0 0.0 3.0 0.00 0.12 0.09 96 1012.0
20260904060518 73 93 1.0 3.0 0.01 0.12 0.09 96 1012.0
20260904060040 73 0 0.0 1.0 0.03 0.12 0.09 96 1012.1
20260904055519 73 0 0.0 2.0 0.08 0.25 0.09 96 1012.1
20260904055024 73 162 0.0 2.0 0.09 0.25 0.09 96 1012.1
20260904054540 73 205 0.0 2.0 0.09 0.25 0.09 95 1012.1
20260904054022 73 325 0.0 3.0 0.09 0.25 0.09 95 1012.2
20260904053518 73 83 0.0 3.0 0.09 0.25 0.09 95 1012.2